Location: Little Italy
(37.8008°N, 122.4108°W)
Time: 08:04:22
(UTC+00:00)

Cosmos 2026 Rocket - Pass Details

Date: 29 October 2020
Orbit: 938 x 1002 km, 82.9° (Epoch: 02 December)

Event Time Altitude Azimuth Distance (km) Brightness Sun altitude
Rises 12:57:44 0° 186° (S) 3,701 7.0 -19.3°
Reaches altitude 10° 13:00:15 10° 187° (S) 2,760 6.3 -18.8°
Maximum altitude 13:06:37 85° 276° (W) 1,011 4.0 -17.5°
Drops below altitude 10° 13:13:02 10° 6° (N) 2,776 6.4 -16.2°
Sets 13:15:34 0° 7° (N) 3,725 7.1 -15.7°
